Weather in Song Pan

China     32°38′18″N   103°35′47″E
temp.,
°C
wind,
m/s
gust,
m/s
humid.,
%
clouds,
%
prec.,
mm/h
press.,
hPa
HPBL,
m
8 may, sat
sat823:00+2ese22740 0.0 101821
02:00+1s119026 0.0 101913
05:00−1n11946 0.0 102010
08:00+4n22640 0.0 1018227
11:00+12nne13220 0.0 10142277
14:00+15nnw23172 0.0 10093276
17:00+15n34164 0.0 10063444
20:00+7sse34570 0.0 101157
9 may, sun
sun923:00+4se22894 0.0 101521
02:00+2s11940 0.0 101510
05:00+1s009299 0.0 101410
08:00+5sse017299 0.0 1013205
11:00+13sse33325 0.0 10071085
14:00+17se43259 0.0 10013033
17:00+13sse144292 0.2 10001121
20:00+7se337385 0.3 100442
10 may, mon
mon1023:00+5se2285100 0.0 100946
02:00+4ese1188100 0.0 100949
05:00+5ene1178100 0.0 1007150
08:00+6e1271100 0.1 1008513
11:00+9ne2362100 0.2 10061229
14:00+8ne3370100 0.6 1005875
17:00+8ne2274100 1.6 1004723
20:00+3nne3497100 5.8 1010268
11 may, tue
tue1123:00+1n34100100 7.1 1014132
02:00+1nnw23100100 10.6 1014142
05:00+1nw12100100 0.3 1015127
08:00+1nw2291100 0.3 1016268
11:00+4wnw338068 0.0 1015770
14:00+6nw247092 0.1 1012944
17:00+10nw1350100 0.0 10081459
20:00+6ene1170100 0.0 100911
12 may, wed
wed1223:00+3se1181100 0.0 101315
02:00+2sw1196100 0.0 101310
05:00+1wsw1194100 0.0 101354
08:00+4ssw118583 0.0 1012229
11:00+12s114972 0.0 10071235
14:00+15ssw223590 0.0 10012576
17:00+13e4349100 0.3 10001704
20:00+8e238495 3.0 1006249